CAPE
0 0 0 0 0 0 0 0 0 0 0 0 14 26 18 0 18 82 83 81 88 0 0 3 16 106 206 390 547 570 439 366 378 388 352 436 342 264 266 343 273 203 439 545
0 0 0 0 0 0 0 0 14 3 0 29 29 18 37 12 15 95 93 81 104 51 0 0 0 0 0 11 181 231 368 323 332 348 295 391 365 323 289 324 391 296 406 542
0 0 0 0 0 0 0 0 28 18 0 82 18 8 56 82 126 69 58 61 78 39 47 8 0 0 0 0 0 8 83 44 78 101 201 378 424 382 350 386 493 501 546 669
0 0 0 0 0 0 5 15 19 8 46 166 143 179 417 432 197 41 42 55 67 52 52 52 43 8 0 0 0 0 0 13 4 0 58 149 249 382 300 304 339 398 467 437
0 0 0 0 0 44 34 60 114 46 181 246 318 333 172 283 102 81 40 24 15 24 29 5 31 16 11 34 29 0 0 2 12 28 21 65 339 318 321 337 221 112 42 22
0 0 0 0 3 62 35 21 222 174 214 238 212 9 0 71 172 126 39 24 24 0 0 0 3 0 66 92 144 216 18 0 0 1 10 24 155 136 69 23 0 0 0 2
0 0 0 0 10 69 5 0 140 198 225 244 82 19 7 132 178 83 61 45 2 0 0 1 0 37 166 101 103 143 98 56 67 54 33 36 11 8 3 0 1 0 0 1
0 0 0 0 0 0 0 80 170 171 144 115 52 33 56 119 136 83 115 52 6 0 0 1 14 65 107 133 73 22 41 24 5 7 28 8 0 0 1 1 0 1 1 1
0 0 0 0 0 0 28 55 137 148 76 55 24 0 56 108 160 93 95 18 1 0 4 0 1 13 79 47 40 44 13 6 5 1 4 3 7 0 6 0 0 1 1 1
0 0 0 0 0 0 27 39 41 25 6 62 31 0 52 132 140 100 62 0 0 0 0 4 0 1 1 1 0 9 2 0 0 0 4 0 3 4 1 1 2 1 0 0
0 0 0 0 0 0 0 0 28 103 117 74 40 34 31 165 93 95 118 38 0 2 1 0 0 0 1 0 0 0 0 1 0 0 0 0 0 0 0 0 0 0 0 0
0 0 0 0 0 0 0 0 2 56 84 154 180 92 105 131 99 134 137 66 11 0 0 0 0 0 0 0 0 0 0 0 0 0 0 0 0 0 0 0 0 0 0 0
0 0 0 0 0 0 0 0 39 167 159 112 136 145 50 42 162 139 121 64 34 0 6 0 0 0 0 0 0 0 0 0 0 0 0 0 0 0 0 0 0 0 0 0
0 0 0 0 0 0 0 0 0 6 64 163 119 50 32 33 71 96 71 58 32 0 0 0 0 0 0 0 0 0 0 0 0 0 0 0 0 0 0 0 0 0 0 0
0 0 0 0 0 0 0 0 0 0 0 20 47 0 0 42 56 63 34 27 19 0 0 0 0 0 0 0 0 0 0 0 0 0 0 0 0 0 0 0 0 0 0 0
0 0 0 0 0 0 0 0 0 0 0 0 0 40 86 99 126 78 49 17 7 3 0 0 0 0 0 0 0 0 0 0 0 0 0 0 0 0 0 0 0 0 0 0
0 0 0 0 0 0 0 0 0 0 0 0 0 20 109 112 57 8 8 0 5 0 0 0 0 0 0 0 0 0 0 0 0 0 0 0 0 0 0 0 0 0 0 0
0 0 0 0 0 0 0 0 0 0 0 0 20 62 107 71 49 9 0 0 0 0 0 0 0 0 0 0 0 0 0 0 0 0 0 0 0 0 0 0 0 0 0 0
0 0 0 0 0 0 0 0 0 0 0 1 25 169 52 7 4 0 0 0 0 0 0 0 0 0 0 0 0 0 0 0 0 0 0 0 0 0 0 0 0 0 0 0
0 0 0 0 0 0 0 0 0 0 20 26 71 88 30 15 7 0 0 0 0 0 0 0 0 0 0 0 0 0 0 0 0 0 0 0 0 0 0 0 0 0 0 0
22 0 0 0 0 0 0 0 0 0 5 47 83 94 60 0 0 0 0 0 0 0 5 0 0 0 0 0 0 0 0 0 0 0 0 0 0 0 0 0 0 0 0 0
0 0 0 0 0 0 0 0 0 0 0 0 1 0 0 0 0 0 0 8 7 0 0 0 0 0 0 0 0 1 0 0 0 2 0 0 0 0 0 0 0 0 0 0
0 0 0 0 0 0 0 0 0 0 0 0 0 0 0 0 0 0 0 0 0 0 0 0 0 6 2 0 0 0 0 0 0 0 0 0 0 0 0 0 0 0 0 0
0 0 0 0 0 0 0 0 0 0 0 0 0 0 0 0 0 0 0 0 0 0 0 0 0 0 0 0 0 0 0 0 0 0 0 0 0 0 0 0 0 0 0 0
0 0 0 0 0 0 0 0 0 0 0 0 0 0 0 0 0 0 0 0 0 0 0 0 0 0 0 0 0 0 0 0 0 0 0 0 0 0 0 0 0 0 0 0
0 0 8 0 0 0 0 0 0 0 0 0 0 0 0 0 0 0 0 0 0 0 0 0 0 0 0 0 0 0 0 0 0 0 0 0 0 0 0 0 0 0 0 0
0 0 3 52 0 0 0 0 0 0 0 0 0 0 0 0 0 0 0 0 0 0 0 0 0 0 0 0 0 0 0 0 0 0 0 0 0 0 0 0 0 0 0 0
CIN
-0 -0 -0 -0 -0 -0 -0 -3 -0 -0 -0 -0 -104 -122 -112 -0 -145 -202 -148 -147 -105 -0 -0 -84 -197 -186 -208 -130 -110 -107 -112 -106 -93 -86 -84 -55 -71 -91 -95 -79 -86 -93 -59 -51
-0 -0 -0 -0 -0 -0 -0 -0 -84 -53 -0 -119 -176 -222 -187 -217 -207 -197 -147 -146 -84 -66 -0 -0 -0 -0 -0 -209 -120 -120 -132 -123 -116 -87 -61 -53 -57 -74 -82 -66 -59 -62 -44 -30
-0 -0 -0 -0 -0 -0 -0 -0 -71 -60 -0 -133 -134 -164 -200 -180 -150 -237 -267 -207 -157 -137 -77 -95 -0 -0 -0 -0 -0 -131 -154 -154 -137 -137 -91 -50 -45 -55 -72 -51 -41 -34 -29 -26
-0 -0 -0 -0 -0 -0 -34 -87 -114 -39 -90 -134 -179 -220 -165 -188 -173 -273 -225 -220 -221 -197 -186 -169 -151 -121 -0 -0 -0 -0 -8 -154 -152 -9 -125 -83 -67 -46 -54 -56 -50 -46 -42 -52
-0 -0 -0 -0 -0 -53 -33 -71 -116 -97 -124 -162 -199 -205 -140 -232 -248 -237 -181 -210 -218 -221 -204 -205 -194 -170 -102 -53 -33 -0 -0 -57 -183 -57 -162 -132 -33 -52 -71 -63 -109 -161 -214 -193
-0 -0 -0 -0 -10 -63 -56 -33 -97 -110 -107 -115 -161 -37 -0 -208 -209 -203 -192 -195 -167 -0 -0 -0 -300 -6 -136 -77 -63 -15 -60 -0 -2 -9 -121 -61 -17 -104 -204 -230 -0 -0 -0 -0
-0 -0 -0 -0 -57 -71 -17 -0 -92 -96 -112 -117 -93 -112 -166 -208 -190 -206 -150 -137 -80 -0 -0 -27 -0 -240 -146 -163 -93 -17 -5 -3 -1 -5 -33 -68 -76 -101 -179 -0 -0 -0 -0 -0
-0 -0 -0 -0 -0 -0 -0 -89 -68 -101 -111 -104 -105 -146 -174 -175 -191 -182 -105 -120 -156 -4 -0 -0 -287 -171 -152 -129 -122 -157 -85 -31 -5 -23 -55 -32 -0 -0 -0 -0 -0 -0 -0 -0
-0 -0 -0 -0 -0 -0 -68 -48 -69 -79 -105 -107 -108 -0 -157 -150 -128 -147 -84 -117 -113 -0 -232 -0 -153 -285 -158 -199 -152 -97 -134 -139 -139 -107 -102 -66 -138 -0 -144 -0 -0 -0 -0 -0
-0 -0 -0 -0 -0 -0 -124 -85 -115 -96 -15 -107 -92 -0 -118 -144 -141 -115 -81 -0 -0 -0 -0 -260 -0 -0 -0 -0 -0 -161 -137 -0 -13 -0 -247 -0 -366 -245 -0 -0 -0 -0 -0 -0
-0 -0 -0 -0 -0 -0 -0 -0 -98 -104 -83 -76 -93 -94 -117 -138 -150 -137 -122 -140 -0 -149 -122 -0 -0 -0 -0 -0 -0 -0 -0 -0 -0 -0 -0 -0 -0 -0 -0 -0 -0 -0 -0 -0
-0 -0 -0 -0 -0 -0 -0 -0 -22 -73 -89 -121 -109 -89 -104 -124 -151 -142 -108 -151 -177 -0 -7 -0 -0 -0 -0 -0 -0 -0 -0 -0 -0 -0 -0 -0 -0 -0 -0 -0 -0 -0 -0 -0
-0 -0 -0 -0 -0 -0 -0 -0 -141 -90 -79 -72 -99 -108 -135 -145 -145 -144 -130 -144 -206 -0 -206 -0 -0 -0 -0 -0 -0 -0 -0 -0 -0 -0 -0 -0 -0 -0 -0 -0 -0 -0 -0 -0
-0 -0 -0 -0 -0 -0 -0 -0 -0 -49 -126 -119 -124 -151 -165 -140 -125 -127 -100 -102 -198 -0 -0 -0 -0 -0 -0 -0 -0 -0 -0 -0 -0 -0 -0 -0 -0 -0 -0 -0 -0 -0 -0 -0
-0 -0 -0 -0 -0 -0 -0 -0 -0 -0 -0 -163 -206 -0 -0 -88 -64 -60 -143 -138 -194 -0 -0 -0 -0 -0 -0 -0 -0 -0 -0 -0 -0 -0 -0 -0 -0 -0 -0 -0 -0 -0 -0 -0
-0 -0 -0 -0 -0 -0 -0 -0 -0 -0 -0 -0 -0 -181 -152 -94 -77 -122 -182 -247 -245 -61 -0 -0 -0 -0 -0 -0 -0 -0 -0 -0 -0 -0 -0 -0 -0 -0 -0 -0 -0 -0 -0 -0
-0 -0 -0 -0 -0 -0 -0 -0 -0 -0 -0 -0 -0 -165 -137 -117 -109 -149 -191 -0 -246 -0 -0 -0 -0 -0 -0 -0 -0 -0 -0 -0 -0 -0 -0 -0 -0 -0 -0 -0 -0 -0 -0 -0
-0 -0 -0 -0 -0 -0 -0 -0 -0 -0 -0 -0 -171 -127 -127 -172 -141 -129 -0 -0 -0 -0 -0 -0 -0 -0 -0 -0 -0 -0 -0 -0 -0 -0 -0 -0 -0 -0 -0 -0 -0 -0 -0 -0
-0 -0 -0 -0 -0 -0 -0 -0 -0 -0 -0 -112 -205 -94 -150 -199 -118 -0 -0 -0 -0 -0 -0 -0 -0 -0 -0 -0 -0 -0 -0 -0 -0 -0 -0 -0 -0 -0 -0 -0 -0 -0 -0 -0
-0 -0 -0 -0 -0 -0 -0 -0 -0 -0 -260 -180 -177 -151 -174 -197 -226 -0 -0 -0 -0 -0 -0 -0 -0 -0 -0 -0 -0 -0 -0 -0 -0 -0 -0 -0 -0 -0 -0 -0 -0 -0 -0 -0
-112 -0 -0 -0 -0 -0 -0 -0 -0 -0 -220 -163 -124 -119 -156 -0 -0 -0 -0 -0 -0 -0 -233 -0 -0 -0 -0 -0 -215 -0 -0 -0 -0 -5 -0 -0 -0 -0 -0 -0 -0 -10 -0 -0
-0 -0 -0 -0 -0 -0 -0 -0 -0 -0 -0 -0 -25 -0 -0 -0 -0 -0 -0 -133 -139 -0 -0 -0 -0 -0 -0 -0 -0 -315 -0 -0 -0 -31 -0 -0 -0 -0 -0 -0 -0 -0 -0 -0
-0 -0 -0 -0 -0 -0 -0 -0 -0 -0 -0 -0 -0 -0 -0 -0 -0 -0 -0 -0 -0 -0 -0 -0 -0 -34 -26 -0 -0 -0 -0 -0 -0 -0 -0 -0 -0 -0 -0 -0 -0 -0 -0 -0
-0 -0 -0 -0 -0 -0 -0 -0 -0 -0 -0 -0 -0 -0 -0 -0 -0 -0 -0 -0 -0 -0 -0 -0 -0 -0 -0 -0 -0 -0 -0 -0 -0 -0 -0 -0 -0 -0 -0 -0 -0 -0 -0 -0
-0 -0 -0 -0 -0 -0 -0 -0 -0 -0 -0 -0 -0 -0 -0 -0 -0 -0 -0 -0 -0 -0 -0 -0 -0 -0 -0 -0 -0 -0 -0 -0 -0 -0 -0 -0 -0 -0 -0 -0 -0 -0 -0 -0
-0 -0 -114 -0 -0 -0 -0 -0 -0 -0 -0 -0 -0 -0 -0 -0 -0 -0 -0 -0 -0 -0 -0 -0 -39 -0 -0 -0 -0 -0 -0 -0 -0 -0 -0 -0 -0 -0 -0 -0 -0 -0 -0 -0
-0 -0 -74 -98 -0 -0 -0 -0 -0 -0 -0 -0 -0 -0 -0 -0 -0 -0 -0 -0 -0 -0 -1 -0 -0 -0 -0 -0 -0 -0 -0 -0 -0 -0 -0 -0 -0 -0 -0 -0 -0 -0 -0 -0
Wind_Speed
18 18 19 17 14 8 9 13 15 21 21 19 13 21 25 21 19 18 17 19 18 16 20 23 20 22 23 26 25 20 15 15 11 13 17 20 24 21 16 15 11 7 10 8
15 18 21 23 21 12 6 9 15 16 21 18 16 18 21 21 21 21 21 21 20 17 17 21 20 20 23 23 24 24 27 21 23 27 19 30 38 16 17 16 12 10 8 8
21 21 24 26 24 22 8 6 8 14 18 11 12 17 19 21 22 23 23 21 18 15 16 23 28 28 26 25 26 25 25 28 26 27 31 32 29 24 16 15 19 18 15 14
21 22 27 21 22 10 8 11 8 14 13 10 13 19 21 17 21 22 21 20 16 16 13 15 17 24 27 32 30 31 34 28 33 29 30 33 35 27 23 19 18 19 16 14
21 22 25 22 18 12 7 13 11 11 11 13 15 19 24 22 25 25 20 19 15 17 16 13 14 15 15 17 24 27 26 29 28 35 35 34 36 31 24 23 16 14 16 16
20 23 22 17 16 9 10 10 10 10 9 10 15 22 26 24 22 21 19 18 16 17 19 19 18 16 15 16 17 19 26 23 23 19 28 35 28 23 22 20 18 17 17 17
18 20 22 15 10 11 14 15 7 8 8 9 17 19 25 25 21 20 19 17 17 18 18 21 19 10 13 13 16 17 16 11 11 8 12 18 22 24 18 19 14 16 17 19
19 20 22 9 11 13 13 9 7 9 9 9 13 19 24 23 21 20 19 18 18 18 18 19 17 10 11 12 11 12 16 12 10 6 7 16 20 23 12 12 10 13 13 14
18 18 16 13 15 13 6 6 8 7 9 9 10 12 20 16 16 17 16 16 16 16 17 17 16 15 12 11 7 9 10 11 11 8 8 6 7 13 14 16 13 10 10 10
19 21 20 18 17 12 10 8 6 7 7 8 9 13 14 15 15 15 14 15 15 16 17 16 16 15 14 12 10 7 8 7 10 8 6 7 8 9 7 8 7 7 8 9
21 20 19 19 17 15 12 17 15 16 11 8 9 12 12 11 11 10 10 11 13 15 16 17 16 15 15 12 9 9 8 8 8 7 8 6 7 8 7 9 8 6 7 7
23 16 18 18 16 13 11 15 13 11 11 10 10 13 12 12 10 8 8 10 12 13 15 16 15 13 13 13 11 8 7 8 7 7 8 8 7 7 11 11 10 8 7 9
16 14 17 17 13 13 12 13 15 11 9 9 10 10 12 11 10 7 10 11 11 11 13 15 16 15 13 12 12 11 9 9 7 6 6 6 7 7 7 11 11 10 9 9
16 15 18 15 20 13 13 11 12 12 11 11 12 11 13 12 12 12 11 9 11 11 14 14 15 14 14 12 10 8 8 9 9 8 8 7 7 7 7 6 6 8 10 8
24 7 17 17 17 15 11 10 9 10 10 10 14 15 12 10 4 5 11 10 9 10 11 13 15 13 12 10 9 9 9 10 9 9 9 7 7 7 6 6 7 6 7 9
12 10 10 18 16 10 7 7 8 8 9 6 6 6 6 10 4 10 11 7 9 9 8 8 10 13 11 9 9 9 9 7 6 8 7 7 7 8 7 7 7 7 8 8
13 14 23 18 8 5 1 3 1 4 4 12 13 10 8 8 8 5 3 5 9 7 7 8 8 7 8 9 11 9 8 7 6 6 7 7 7 7 7 7 7 7 8 8
32 32 8 3 1 3 4 8 7 9 14 16 11 10 10 12 10 7 5 4 6 5 4 4 4 6 5 8 9 9 9 7 6 7 8 9 7 6 6 7 8 7 8 9
36 34 24 7 8 8 7 8 11 13 15 17 12 12 12 11 7 4 3 3 5 5 7 4 4 5 3 5 8 12 10 7 7 7 7 8 9 9 7 6 5 6 8 8
34 32 22 12 9 13 14 11 11 12 13 13 14 13 12 11 14 12 7 12 13 15 11 8 3 4 3 4 9 8 6 8 9 11 9 7 6 7 7 4 3 4 4 5
17 13 6 6 14 16 14 14 15 17 17 13 14 16 15 16 18 18 18 19 22 22 16 15 15 12 22 23 6 5 5 6 6 8 16 5 5 6 6 5 3 3 2 1
19 16 5 6 10 12 14 15 16 17 18 16 14 14 13 16 19 19 20 21 23 25 25 23 21 21 19 15 9 4 19 19 19 21 19 10 6 4 2 4 4 6 6 5
18 19 8 3 9 12 9 12 16 16 16 17 17 17 17 18 19 19 22 25 24 23 23 23 23 24 25 23 22 19 13 7 1 7 4 5 3 5 1 3 5 5 6 4
19 19 21 6 6 3 5 10 13 15 15 15 16 16 15 18 20 22 23 24 25 25 26 25 23 22 20 19 16 13 9 7 4 5 5 6 7 4 4 5 5 3 2 2
19 21 21 18 10 4 1 6 8 7 9 13 14 13 13 13 15 19 22 24 26 24 24 23 20 16 12 12 11 8 5 4 2 2 3 4 5 6 6 5 4 4 4 4
25 24 23 23 15 16 3 3 5 5 6 9 10 9 10 10 13 14 11 17 16 12 12 13 11 9 7 8 9 9 8 8 5 1 1 3 6 9 12 9 7 4 4 3
26 26 25 21 20 20 16 8 6 7 6 6 10 8 10 9 9 10 10 6 5 6 7 6 6 8 8 8 9 9 8 8 9 6 4 8 11 14 14 12 6 3 3 3
Wind_Direction
315 312 313 324 335 347 332 339 335 319 317 324 337 289 283 291 310 316 303 299 305 286 259 251 260 257 256 257 258 252 233 249 237 265 266 201 194 193 196 194 201 231 283 292
323 320 314 304 320 337 327 332 326 326 319 330 318 304 300 287 299 303 302 303 301 293 272 255 253 260 260 263 264 261 251 255 262 265 267 258 244 258 259 260 260 261 269 281
308 316 306 300 312 330 345 326 336 323 318 349 342 308 324 317 297 291 268 303 306 311 276 265 260 262 266 267 264 266 259 257 263 266 262 260 260 260 254 254 267 270 274 283
309 315 297 306 315 348 359 332 347 328 332 344 341 316 320 352 328 329 325 317 311 295 303 306 294 276 271 264 267 271 256 262 258 263 267 264 258 258 259 259 265 273 276 283
306 304 303 312 317 335 352 318 334 337 335 328 328 324 313 325 315 317 333 321 327 296 298 323 340 321 316 295 273 269 269 263 267 258 264 266 262 256 257 259 261 268 277 287
301 298 300 315 322 14 351 336 340 353 352 346 330 307 311 323 324 329 333 324 324 305 293 295 301 323 336 320 317 302 282 282 269 264 261 260 265 259 257 260 265 274 283 293
296 297 296 310 330 329 320 320 348 358 356 344 322 322 322 326 326 331 333 326 308 304 303 292 296 336 327 340 326 346 320 316 275 275 266 264 271 260 257 265 275 276 285 298
293 294 291 325 327 312 327 344 342 337 341 335 328 327 325 327 323 324 329 327 316 307 305 308 305 322 330 329 342 8 11 2 344 293 280 269 267 280 276 282 280 290 297 306
290 291 300 314 318 332 10 357 339 341 340 339 341 344 335 343 337 330 327 323 323 317 305 304 307 306 322 328 356 347 12 9 4 334 341 332 306 278 271 287 297 299 306 320
291 293 292 297 309 329 332 337 339 336 340 345 346 344 342 339 334 327 322 317 318 319 306 303 301 305 313 325 334 355 352 323 5 5 332 289 287 282 294 297 300 304 315 322
292 295 295 301 307 314 321 307 312 317 327 329 331 333 336 335 334 329 323 313 317 309 302 295 302 298 300 315 325 329 332 319 20 6 26 338 301 304 328 308 326 349 341 347
289 298 295 300 311 328 335 319 323 322 320 317 317 321 327 324 320 321 313 303 307 314 300 297 299 305 301 303 306 328 326 318 358 18 35 35 40 350 344 347 340 356 359 349
309 305 303 309 325 331 331 328 324 321 322 322 318 318 316 313 310 302 297 295 295 307 298 291 286 290 302 304 301 299 307 312 325 349 8 35 21 15 9 326 331 347 12 32
313 307 300 319 316 332 330 337 339 336 333 327 325 323 318 307 306 291 278 296 290 296 294 290 291 289 292 301 303 308 310 311 314 318 322 330 336 355 13 17 14 0 343 0
294 307 302 315 322 324 332 338 339 339 343 339 331 325 323 309 4 266 277 288 294 300 299 293 288 292 299 308 307 299 298 300 315 315 315 329 345 345 356 0 358 0 356 346
306 315 320 311 327 346 348 352 343 343 350 19 82 71 79 109 25 289 288 305 301 301 309 306 299 290 297 306 309 309 310 329 322 307 313 333 330 327 337 341 341 341 336 336
286 295 279 305 349 17 96 1 355 21 78 138 127 96 66 76 94 71 35 321 309 310 312 314 313 320 318 310 304 306 313 317 330 317 314 319 324 327 337 342 343 347 350 0
245 238 174 339 108 127 122 158 148 153 159 148 116 98 97 119 119 102 85 9 334 356 33 53 10 325 351 329 310 304 315 324 325 326 321 312 315 318 323 327 332 354 2 357
235 230 207 179 165 154 136 145 154 153 153 153 130 129 130 129 98 81 16 33 93 90 115 89 351 311 346 346 318 298 296 304 322 341 355 334 331 316 314 320 338 346 351 4
232 235 210 164 143 147 154 140 131 134 132 131 136 136 140 140 138 131 116 138 143 143 127 114 34 337 333 306 291 313 331 303 298 304 320 350 10 6 3 16 37 6 355 359
258 282 320 124 139 142 143 137 138 145 145 130 138 151 150 144 147 144 145 156 170 172 149 139 137 134 159 166 105 74 64 5 352 338 306 339 344 345 353 10 50 46 109 107
270 284 321 118 125 129 135 143 146 145 149 144 143 143 141 152 157 156 162 164 171 173 169 167 164 164 157 146 133 147 271 276 281 286 298 330 149 142 57 16 353 349 349 334
283 272 309 114 133 135 114 127 139 140 144 150 154 157 159 161 160 158 170 179 176 170 169 175 178 182 185 183 184 172 157 138 46 331 352 354 126 167 285 337 337 340 350 0
289 280 265 308 302 331 95 132 140 145 152 148 150 151 146 157 171 178 182 182 182 182 183 184 183 181 179 178 172 164 151 131 70 19 351 340 335 333 313 316 323 324 328 322
288 286 276 275 287 315 154 144 147 143 142 154 155 149 150 143 157 170 175 183 187 181 182 183 182 177 170 171 169 162 146 142 120 80 38 25 2 345 334 327 316 300 302 301
279 283 284 275 282 289 301 273 197 185 174 171 172 170 169 164 166 163 157 172 171 169 173 181 183 183 180 182 188 190 189 185 182 191 305 326 331 329 329 326 314 294 280 273
276 281 285 290 282 282 286 292 265 241 227 212 195 195 192 191 190 189 187 202 244 236 218 228 222 218 220 213 205 208 212 213 201 204 269 309 315 320 326 334 331 285 243 232